Saint George, UT

12:45 PM MST on December 10, 2016 (GMT -0700)
Saint George Municipal

Weather History for KSGU - July, 2013

Change the Weather History Date:

Tuesday, July 2, 2013

  Actual Average Record
Temperature  
Mean Temperature 96 °F -  
Max Temperature 111 °F 102 °F 112 °F (1967)
Min Temperature 80 °F 67 °F 54 °F (1963)
Cooling Degree Days 30    
Growing Degree Days 46 (Base 50)    
Moisture  
Dew Point 42 °F    
Average Humidity 16    
Maximum Humidity 25    
Minimum Humidity 11    
Precipitation  
Precipitation 0.00 in - - ()
Sea Level Pressure  
Sea Level Pressure 29.88 in    
Wind  
Wind Speed 7 mph (SW)    
Max Wind Speed 21 mph    
Max Gust Speed 31 mph    
Visibility 10 miles    
Events      
Averages and records for this station are not official NWS values.
T = Trace of Precipitation, MM = Missing Value Source: NWS Daily Summary

Daily Weather History Graph

Daily Weather History Graph

Search for Another Location

Airport or City:

Trip Planner

Search our weather history database for the weather conditions in past years. The results will help you decide how hot, cold, wet, or windy it might be!

Date:

Astronomy

Jul. 02, 2013 Rise Set
Actual Time 6:18 AM MDT 8:58 PM MDT
Civil Twilight 5:48 AM MDT 9:28 PM MDT
Nautical Twilight 5:09 AM MDT 10:06 PM MDT
Astronomical Twilight 4:26 AM MDT 10:49 PM MDT
Moon 2:19 AM MDT (7/2) 4:18 PM MDT (7/2)
Length of Visible Light 15h 40m
Length of Day
14h 39m
Waning Crescent, 26% of the Moon is Illuminated
Jul 2
Waning Crescent
Jul 8
New
Jul 15
First Quarter
Jul 22
Full
Jul 29
Last Quarter

Hourly Weather History & Observations

Time (MDT) Temp. Dew Point Humidity Pressure Visibility Wind Dir Wind Speed Gust Speed Precip Events Conditions
12:15 AM 96.8 °F 44.6 °F 17% - 10.0 mi Calm Calm - N/A   Clear
12:35 AM 95.0 °F 42.8 °F 16% - 10.0 mi South 4.6 mph - N/A   Clear
12:55 AM 91.4 °F 42.8 °F 18% - 10.0 mi SSE 10.4 mph - N/A   Clear
1:35 AM 89.6 °F 42.8 °F 20% - 10.0 mi ESE 9.2 mph - N/A   Clear
1:55 AM 87.8 °F 42.8 °F 21% 29.94 in 10.0 mi ESE 8.1 mph - N/A   Clear
2:15 AM 89.6 °F 42.8 °F 20% 29.95 in 10.0 mi North 11.5 mph - N/A   Clear
2:35 AM 87.8 °F 41.0 °F 19% 29.94 in 10.0 mi ESE 3.5 mph - N/A   Clear
2:55 AM 87.8 °F 42.8 °F 21% 29.95 in 10.0 mi ESE 3.5 mph - N/A   Clear
3:15 AM 87.8 °F 42.8 °F 21% 29.94 in 10.0 mi East 5.8 mph - N/A   Clear
3:35 AM 86.0 °F 42.8 °F 22% 29.94 in 10.0 mi ESE 5.8 mph - N/A   Clear
3:55 AM 84.2 °F 42.8 °F 23% 29.95 in 10.0 mi East 4.6 mph - N/A   Clear
4:15 AM 86.0 °F 42.8 °F 22% 29.95 in 10.0 mi Calm Calm - N/A   Clear
4:35 AM 84.2 °F 42.8 °F 23% 29.96 in 10.0 mi ESE 8.1 mph - N/A   Clear
4:55 AM 84.2 °F 42.8 °F 23% 29.96 in 10.0 mi ESE 8.1 mph - N/A   Clear
5:15 AM 82.4 °F 42.8 °F 25% 29.96 in 10.0 mi East 3.5 mph - N/A   Clear
5:35 AM 82.4 °F 42.8 °F 25% 29.96 in 10.0 mi East 5.8 mph - N/A   Clear
5:55 AM 82.4 °F 41.0 °F 23% 29.97 in 10.0 mi SSE 5.8 mph - N/A   Clear
6:15 AM 80.6 °F 41.0 °F 24% 29.98 in 10.0 mi South 4.6 mph - N/A   Clear
6:35 AM 80.6 °F 41.0 °F 24% 29.98 in 10.0 mi Calm Calm - N/A   Clear
7:15 AM 82.4 °F 41.0 °F 23% 29.99 in 10.0 mi Calm Calm - N/A   Clear
7:35 AM 80.6 °F 41.0 °F 24% 29.99 in 10.0 mi SE 4.6 mph - N/A   Clear
8:15 AM 84.2 °F 42.8 °F 23% 30.00 in 10.0 mi South 4.6 mph - N/A   Clear
8:35 AM 84.2 °F 42.8 °F 23% 30.01 in 10.0 mi SW 4.6 mph - N/A   Clear
8:55 AM 86.0 °F 42.8 °F 22% 30.00 in 10.0 mi Calm Calm - N/A   Clear
9:15 AM 89.6 °F 42.8 °F 20% 30.00 in 10.0 mi Calm Calm - N/A   Clear
9:35 AM 89.6 °F 42.8 °F 20% - 10.0 mi Calm Calm - N/A   Clear
9:55 AM 91.4 °F 42.8 °F 18% - 10.0 mi Calm Calm - N/A   Clear
10:15 AM 91.4 °F 42.8 °F 18% - 10.0 mi Calm Calm - N/A   Clear
10:35 AM 93.2 °F 42.8 °F 17% - 10.0 mi Calm Calm - N/A   Clear
11:15 AM 96.8 °F 44.6 °F 17% - 10.0 mi Calm Calm - N/A   Clear
12:15 PM 100.4 °F 42.8 °F 14% - 10.0 mi SSE 4.6 mph - N/A   Clear
12:35 PM 102.2 °F 42.8 °F 13% - 10.0 mi WSW 9.2 mph - N/A   Clear
12:55 PM 104.0 °F 41.0 °F 12% - 10.0 mi WSW 8.1 mph - N/A   Clear
1:15 PM 105.8 °F 41.0 °F 11% - 10.0 mi WSW 4.6 mph - N/A   Clear
1:35 PM 107.6 °F 42.8 °F 11% - 10.0 mi SSW 11.5 mph 19.6 mph N/A   Clear
1:55 PM 107.6 °F 42.8 °F 11% - 10.0 mi West 11.5 mph 19.6 mph N/A   Clear
2:15 PM 107.6 °F 42.8 °F 11% - 10.0 mi WSW 11.5 mph 23.0 mph N/A   Clear
2:35 PM 109.4 °F 42.8 °F 11% - 10.0 mi WSW 18.4 mph 24.2 mph N/A   Clear
2:55 PM 109.4 °F 44.6 °F 11% - 10.0 mi WSW 18.4 mph 23.0 mph N/A   Clear
3:15 PM 111.2 °F 44.6 °F 11% - 10.0 mi SW 17.3 mph 23.0 mph N/A   Clear
3:35 PM 111.2 °F 44.6 °F 11% 29.84 in 8.0 mi SW 15.0 mph 23.0 mph N/A   Clear
3:55 PM 109.4 °F 42.8 °F 11% 29.83 in 10.0 mi WSW 19.6 mph 25.3 mph N/A   Clear
4:15 PM 107.6 °F 42.8 °F 11% 29.83 in 10.0 mi West 17.3 mph 25.3 mph N/A   Clear
4:35 PM 107.6 °F 44.6 °F 12% 29.83 in 10.0 mi WSW 18.4 mph 25.3 mph N/A   Clear
4:55 PM 107.6 °F 44.6 °F 12% 29.82 in 10.0 mi WSW 19.6 mph 25.3 mph N/A   Clear
5:15 PM 109.4 °F 42.8 °F 11% 29.81 in 10.0 mi West 18.4 mph 25.3 mph N/A   Clear
5:35 PM 109.4 °F 42.8 °F 11% 29.80 in 10.0 mi West 19.6 mph 25.3 mph N/A   Clear
5:55 PM 109.4 °F 42.8 °F 11% 29.79 in 10.0 mi WSW 20.7 mph 31.1 mph N/A   Clear
6:15 PM 109.4 °F 42.8 °F 11% 29.79 in 10.0 mi West 18.4 mph 25.3 mph N/A   Clear
6:35 PM 109.4 °F 42.8 °F 11% 29.78 in 10.0 mi WSW 20.7 mph 26.5 mph N/A   Clear
6:55 PM 107.6 °F 42.8 °F 11% 29.78 in 10.0 mi WSW 11.5 mph 24.2 mph N/A   Clear
7:15 PM 107.6 °F 42.8 °F 11% 29.78 in 10.0 mi WSW 13.8 mph 21.9 mph N/A   Clear
7:35 PM 107.6 °F 42.8 °F 11% 29.78 in 10.0 mi WSW 16.1 mph 23.0 mph N/A   Clear
7:55 PM 107.6 °F 42.8 °F 11% 29.79 in 10.0 mi West 15.0 mph - N/A   Clear
8:35 PM 105.8 °F 41.0 °F 11% 29.79 in 10.0 mi West 11.5 mph - N/A   Clear
8:55 PM 105.8 °F 41.0 °F 11% 29.79 in 10.0 mi West 9.2 mph - N/A   Clear
9:15 PM 104.0 °F 39.2 °F 11% 29.80 in 10.0 mi WNW 3.5 mph - N/A   Clear
9:35 PM 102.2 °F 39.2 °F 11% 29.81 in 10.0 mi West 5.8 mph - N/A   Clear
10:15 PM 100.4 °F 39.2 °F 12% 29.82 in 10.0 mi WSW 6.9 mph - N/A   Clear
10:35 PM 100.4 °F 37.4 °F 11% 29.83 in 10.0 mi WSW 10.4 mph - N/A   Clear
10:55 PM 100.4 °F 39.2 °F 12% 29.83 in 10.0 mi West 10.4 mph - N/A   Clear
11:15 PM 100.4 °F 39.2 °F 12% 29.83 in 10.0 mi West 13.8 mph - N/A   Clear
11:35 PM 100.4 °F 41.0 °F 13% 29.84 in 10.0 mi NW 4.6 mph - N/A   Clear
11:55 PM 98.6 °F 41.0 °F 14% 29.84 in 10.0 mi WNW 3.5 mph - N/A   Clear